This demonstration page uses our WeatherBlox Daily Observations layout. Learn more.

Hourly Observations for May 5, 2018

Temp ( °F °C ) Dew Point ( °F °C ) Humidity (%) Winds ( mph kmh ) Pressure ( in mb ) Visibility ( mi km ) Precip ( " mm )
12:54 am 00:54 Clear 48 8.9 41 5 77 77 NNW 3 6 30.08 1019 10 16.0934 0 0
1:54 am 01:54 Clear 50 10 42 5.6 74 74 Calm 30.07 1018 10 16.0934 0 0
2:54 am 02:54 Clear 46 7.8 41 5 83 83 Calm 30.08 1019 10 16.0934 0 0
3:54 am 03:54 Clear 50 10 40 4.4 68 68 Calm 30.08 1019 10 16.0934 0 0
4:54 am 04:54 Clear 51 10.6 42 5.6 71 71 Calm 30.07 1018 10 16.0934 0 0
5:54 am 05:54 Clear 51 10.6 42 5.6 71 71 Calm 30.07 1018 10 16.0934 0 0
6:54 am 06:54 Sunny 49 9.4 42 5.6 77 77 SSE 5 7 30.07 1018 10 16.0934 0 0
7:54 am 07:54 Sunny 56 13.3 46 7.8 70 70 SSE 5 7 30.07 1018 10 16.0934 0 0
8:54 am 08:54 Mostly Sunny 65 18.3 46 7.8 51 51 SW 7 11 30.07 1018 10 16.0934 0 0
9:54 am 09:54 Sunny 70 21.1 45 7.2 41 41 SSW 7 11 30.06 1018 10 16.0934 0 0
10:54 am 10:54 Partly Cloudy 75 23.9 46 7.8 36 36 WSW 5 7 30.06 1018 10 16.0934 0 0
11:54 am 11:54 Sunny 83 28.3 41 5 23 23 WSW 8 13 30.04 1017 10 16.0934 0 0
12:54 pm 12:54 Sunny 85 29.4 37 2.8 18 18 WNW 8 13 30.01 1016 10 16.0934 0 0
1:54 pm 13:54 Mostly Cloudy 84 28.9 36 2.2 18 18 W 8 13 29.98 1015 10 16.0934 0 0
2:54 pm 14:54 Mostly Cloudy 81 27.2 42 5.6 25 25 ESE 12 19 29.98 1015 10 16.0934 0 0.0254
3:14 pm 15:14 Sunny 84 28.9 41 5 22 22 S 9 15 29.91 1013 10 16.0934 0 0
3:54 pm 15:54 Mostly Sunny 81 27.2 47 8.3 30 30 S 6 9 29.94 1014 10 16.0934 0 0
4:54 pm 16:54 Mostly Sunny 80 26.7 43 6.1 27 27 ESE 15 24 29.93 1014 10 16.0934 0 0
5:01 pm 17:01 Mostly Sunny 79 26.1 44 6.7 29 29 ESE 16 26 29.88 1012 10 16.0934 0 0
5:54 pm 17:54 Sunny 77 25 46 7.8 33 33 ESE 15 24 29.95 1014 10 16.0934 0 0
6:54 pm 18:54 Sunny 76 24.4 48 8.9 37 37 E 14 22 29.96 1014 10 16.0934 0 0
7:54 pm 19:54 Mostly Cloudy 73 22.8 49 9.4 43 43 NNE 14 22 29.99 1016 10 16.0934 0 0
8:15 pm 20:15 Mostly Cloudy with Light Rain 73 22.8 50 10 44 44 SSE 13 20 29.94 1014 10 16.0934 0 0.0254
8:28 pm 20:28 Mostly Clear 71 21.7 51 10.6 49 49 SE 15 24 29.94 1014 10 16.0934 0 0.0254
8:54 pm 20:54 Clear 70 21.1 51 10.6 51 51 SSE 10 17 29.96 1014 10 16.0934 0 0.0254
9:54 pm 21:54 Clear 63 17.2 51 10.6 65 65 S 6 9 29.97 1015 10 16.0934 0 0
10:54 pm 22:54 Clear 61 16.1 50 10 67 67 NE 6 9 30.01 1016 10 16.0934 0 0
11:54 pm 23:54 Clear 57 13.9 50 10 78 78 S 3 6 30 1016 10 16.0934 0 0

Powered by AerisWeather